Location: Abraham Lincoln Continuation High School
(33.9711°N, 117.3662°W)
Time: 06:31:42
(UTC+00:00)

Lacrosse 5 - Pass Details

Date: 23 January 2021
Orbit: 715 x 724 km, 57.0° (Epoch: 01 March)

Event Time Altitude Azimuth Distance (km) Brightness Sun altitude
Rises 01:49:22 0° 330° (NNW) 3,118 5.3 -8.3°
Reaches altitude 10° 01:52:03 10° 342° (NNW) 2,196 4.4 -8.9°
Maximum altitude 01:56:24 28° 41° (NE) 1,315 2.8 -9.7°
Enters shadow 02:00:38 11° 100° (E) 2,154 3.8 -10.6°
